Location: Taukkyan
(23.1052°N, 94.0030°E)
Time: 11:42:30
(UTC+00:00)

Aureole 2 - Pass Details

Date: 06 July 2020
Orbit: 366 x 900 km, 73.9° (Epoch: 14 August)

Event Time Altitude Azimuth Distance (km) Brightness Sun altitude
Exits shadow 21:34:55 39° 177° (S) 697 5.0 -18.6°
Maximum altitude 21:36:03 71° 105° (ESE) 468 4.5 -18.3°
Drops below altitude 10° 21:39:13 10° 20° (NNE) 1,466 7.8 -17.8°
Sets 21:41:08 0° 18° (NNE) 2,281 8.9 -17.4°
